User: anonymous
Location: Irma
(52.9170°N, 111.2330°W)
Time: 16:18:08
(UTC-06:00)
Language:

Cosmos 1633 Rocket - Orbit

View from above orbital plane
View from above orbital plane
View from above satellite
View from above satellite

Ground track
Ground track

The orbit data is extracted from the following two-line orbital elements,

1 15593U 85020B   14109.82348503  .00001030  00000-0  12197-3 0  6259
2 15593 082.5371 262.4812 0010655 246.5250 226.4225 14.83644491573166
Epoch (UTC): 19 April 2014 19:45:49
Eccentricity: 0.0010655
inclination: 82.5371°
perigee height: 610 km
apogee height: 625 km
right ascension of ascending node: 262.4812°
argument of perigee: 246.5250°
revolutions per day: 14.83644491
mean anomaly at epoch: 226.4225°
orbit number at epoch: 57316

The dashed part of the orbit path shows where the satellite is in the earth's shadow,  

DLR